Yuma MCAS, AZ

12:36 AM MST on March 27, 2017 (GMT -0700)
Yuma Marine Corps Air Station

Weather History for KNYL - April, 2013

Change the Weather History Date:

Sunday, April 21, 2013

  Actual Average Record
Temperature  
Mean Temperature 80 °F 74 °F  
Max Temperature 96 °F 88 °F 107 °F (1958)
Min Temperature 63 °F 61 °F 43 °F (1904)
Degree Days  
Heating Degree Days 0 0  
Month to date heating degree days 0 12  
Since 1 July heating degree days 705 685  
Cooling Degree Days 15 10  
Month to date cooling degree days 173 154  
Year to date cooling degree days 382 307  
Growing Degree Days 30 (Base 50)    
Moisture  
Dew Point 24 °F    
Average Humidity 17    
Maximum Humidity 30    
Minimum Humidity 4    
Precipitation  
Precipitation 0.00 in 0.01 in 0.28 in (1925)
Month to date precipitation T 0.13  
Year to date precipitation 1.11 1.22  
Sea Level Pressure  
Sea Level Pressure 29.89 in    
Wind  
Wind Speed 6 mph (South)    
Max Wind Speed 15 mph    
Max Gust Speed 20 mph    
Visibility 10 miles    
Events      
T = Trace of Precipitation, MM = Missing Value Source: NWS Daily Summary

Daily Weather History Graph

Daily Weather History Graph

Search for Another Location

Airport or City:

Trip Planner

Search our weather history database for the weather conditions in past years. The results will help you decide how hot, cold, wet, or windy it might be!

Date:

Astronomy

Apr. 21, 2013 Rise Set
Actual Time 6:01 AM MST 7:12 PM MST
Civil Twilight 5:36 AM MST 7:38 PM MST
Nautical Twilight 5:05 AM MST 8:09 PM MST
Astronomical Twilight 4:34 AM MST 8:40 PM MST
Moon 3:15 PM MST (4/21) 3:11 AM MST (4/21)
Length of Visible Light 14h 02m
Length of Day
13h 11m
Waxing Gibbous, 81% of the Moon is Illuminated
Apr 21
Waxing Gibbous
Apr 25
Full
May 2
Last Quarter
May 9
New
May 17
First Quarter

Hourly Weather History & Observations

Time (MST) Temp. Dew Point Humidity Pressure Visibility Wind Dir Wind Speed Gust Speed Precip Events Conditions
12:55 AM 71.1 °F 27.0 °F 19% 29.90 in 10.0 mi SE 4.6 mph - N/A   Clear
1:55 AM 70.0 °F 26.1 °F 19% 29.89 in 10.0 mi Calm Calm - N/A   Clear
2:55 AM 68.0 °F 25.0 °F 20% 29.88 in 10.0 mi ENE 3.5 mph - N/A   Clear
3:55 AM 64.0 °F 32.0 °F 30% 29.88 in 10.0 mi Calm Calm - N/A   Clear
4:55 AM 64.9 °F 30.0 °F 27% 29.88 in 10.0 mi NNE 4.6 mph - N/A   Clear
5:55 AM 64.0 °F 30.9 °F 29% 29.90 in 10.0 mi NE 3.5 mph - N/A   Clear
6:55 AM 66.0 °F 30.9 °F 27% 29.92 in 10.0 mi NE 5.8 mph - N/A   Partly Cloudy
7:55 AM 71.1 °F 28.9 °F 21% 29.94 in 10.0 mi NNE 5.8 mph - N/A   Clear
8:55 AM 78.1 °F 27.0 °F 15% 29.95 in 10.0 mi Calm Calm - N/A   Clear
9:55 AM 82.0 °F 32.0 °F 16% 29.96 in 10.0 mi West 4.6 mph - N/A   Clear
10:55 AM 84.9 °F 23.0 °F 10% 29.97 in 10.0 mi SW 5.8 mph - N/A   Partly Cloudy
11:55 AM 88.0 °F 19.9 °F 8% 29.95 in 10.0 mi SSW 6.9 mph - N/A   Partly Cloudy
12:55 PM 90.0 °F 23.0 °F 9% 29.93 in 10.0 mi SSW 8.1 mph - N/A   Partly Cloudy
1:55 PM 93.0 °F 19.0 °F 7% 29.90 in 10.0 mi Variable 5.8 mph 16.1 mph N/A   Partly Cloudy
2:55 PM 95.0 °F 19.0 °F 6% 29.87 in 10.0 mi South 15.0 mph 19.6 mph N/A   Partly Cloudy
3:55 PM 95.0 °F 10.9 °F 4% 29.85 in 10.0 mi South 11.5 mph - N/A   Partly Cloudy
4:55 PM 93.9 °F 10.9 °F 5% 29.84 in 10.0 mi SSW 11.5 mph - N/A   Scattered Clouds
5:55 PM 91.9 °F 18.0 °F 7% 29.83 in 10.0 mi SSW 10.4 mph - N/A   Scattered Clouds
6:55 PM 88.0 °F 24.1 °F 10% 29.83 in 10.0 mi SSW 8.1 mph - N/A   Partly Cloudy
7:55 PM 82.0 °F 21.0 °F 10% 29.84 in 10.0 mi SSW 6.9 mph - N/A   Partly Cloudy
8:55 PM 78.1 °F 21.0 °F 12% 29.86 in 10.0 mi SSW 5.8 mph - N/A   Partly Cloudy
9:55 PM 75.9 °F 21.0 °F 13% 29.88 in 10.0 mi SW 4.6 mph - N/A   Clear
10:55 PM 73.0 °F 23.0 °F 15% 29.88 in 10.0 mi South 4.6 mph - N/A   Clear
11:55 PM 71.1 °F 21.0 °F 15% 29.88 in 10.0 mi Calm Calm - N/A   Clear